Preview of NWS' New Version of Forecast
This preview is not operational and should not be used for support decisions.

Regional Weather Roundup (RWR)

Issued by National Weather Service (NWS)

                            
000
ASUS43 KBIS 251602
RWRND 

NORTH DAKOTA REGIONAL WEATHER ROUNDUP
NATIONAL WEATHER SERVICE BISMARCK ND
1100 AM CDT SUN AUG 25 2019

NOTE: "FAIR" INDICATES FEW OR NO CLOUDS BELOW 12,000 FEET WITH NO
SIGNIFICANT WEATHER AND/OR OBSTRUCTIONS TO VISIBILITY.


NDZ001>003-009>011-017-251700-
NORTHWEST NORTH DAKOTA
  
CITY           SKY/WX    TMP DP  RH WIND       PRES   REMARKS
WILLISTON      PTSUNNY   72  60  66 SE5       29.71F                  
MINOT          PTSUNNY   71  64  78 S7        29.68F                  
$$
 
NDZ018>021-031>035-040>046-251700-
SOUTHWEST NORTH DAKOTA
  
CITY           SKY/WX    TMP DP  RH WIND       PRES   REMARKS
BISMARCK       FAIR      73  66  78 S12       29.73S                  
DICKINSON      FAIR      80  53  39 W12       29.73F                  
GARRISON         N/A     72  64  76 S6        29.71R                  
HETTINGER ARPT FAIR      76  56  49 NW8       29.77F                  
$$
 
NDZ004>008-012>016-024-026-027-054-251700-
NORTHEAST NORTH DAKOTA
  
CITY           SKY/WX    TMP DP  RH WIND       PRES   REMARKS
GRAND FORKS    LGT RAIN  63  59  87 S14       29.81S                  
DEVILS LAKE    CLOUDY    65  63  93 SE14      29.76F                  
$$
 
NDZ022-023-025-028>030-036>039-047>053-251700-
SOUTHEAST NORTH DAKOTA
  
CITY           SKY/WX    TMP DP  RH WIND       PRES   REMARKS
FARGO          CLOUDY    67  60  78 S15G25    29.85S                  
JAMESTOWN      CLOUDY    65  64  97 SE13G24   29.77F FOG              
$$